Flag for Chile Weather past 2 weeks in Osorno, Chile

Now
43 °F

Fog.


Feels Like: 43 °F
Forecast: 33 / 53 °F
Wind: No wind

Location: Puerto Montt Airport

Current Time: May 25, 2015 at 8:38:32 AM

Latest Report: May 25, 2015 at 8:00 AM


Visibility: 1 mi

Pressure: 30.18 "Hg

Humidity: 93%

Dew point: 41 °F

Location of OsornoLocation

Historic Weather in Osorno — Graph

°F

Osorno temperature yesterday

Maximum temperature yesterday: 50 °F (at 2:00 PM)
Minimum temperature yesterday: 36 °F (at 12:00 AM)
Average temperature yesterday: 43 °F

Past Weeks' High & Low Weather Summary

 TemperatureHumidityPressure
High64 °F (May 11, 3:00 PM)100% (May 11, 4:00 AM)30.30 "Hg (May 11, 4:00 AM)
Low34 °F (May 23, 8:00 AM)60% (May 11, 5:00 PM)29.56 "Hg (May 20, 4:00 AM)
Average53 °F88%29.96 "Hg
* Reported May 10 8:00 AM — May 25 7:00 AM, Osorno, Weather by CustomWeather, © 2015

Note: Actual official high and low records may vary slightly from our data, if they occured in-between our weather recording intervals... More about our weather records

Advertising

Osorno weather history for previous 24 hours

 ConditionsComfort  
Time TempWeatherWind HumidityBarometerVisibility
7:00 AM
Mon, May 25
43 °FFog.No wind93%30.18 "Hg1 mi
6:00 AM43 °FPassing clouds.2 mph93%30.18 "HgN/A
5:00 AM43 °FPassing clouds.No wind100%30.21 "HgN/A
4:00 AM43 °FPassing clouds.No wind93%30.24 "HgN/A
3:00 AM43 °FFog.No wind93%30.24 "Hg1 mi
2:00 AM43 °FFog.3 mph100%30.27 "Hg1 mi
1:00 AM45 °FPassing clouds.3 mph93%30.27 "HgN/A
12:00 AM45 °FFog.2 mph93%30.27 "Hg1 mi
11:00 PM
Sun, May 24
45 °FPassing clouds.2 mph93%30.27 "HgN/A
10:00 PM45 °FPassing clouds.3 mph93%30.27 "HgN/A
9:00 PM45 °FPassing clouds.5 mph100%30.27 "HgN/A
8:00 PM45 °FOvercast.3 mph93%30.27 "HgN/A
7:00 PM46 °FPassing clouds.5 mph93%30.24 "HgN/A
6:00 PM48 °FOvercast.3 mph87%30.27 "HgN/A
5:00 PM50 °FPartly sunny.3 mph76%30.24 "HgN/A
4:00 PM50 °FOvercast.5 mph71%30.27 "HgN/A
3:00 PM50 °FPartly sunny.5 mph71%30.27 "HgN/A
2:00 PM50 °FPartly sunny.6 mph76%30.27 "HgN/A
1:00 PM48 °FScattered clouds.6 mph82%30.27 "HgN/A
12:00 PM45 °FScattered clouds.3 mph93%30.30 "HgN/A
11:00 AM43 °FPartly sunny.3 mph93%30.30 "HgN/A
10:00 AM39 °FPartly sunny.No wind93%30.30 "HgN/A
9:00 AM37 °FPartly sunny.No wind93%30.30 "HgN/A
8:00 AM37 °FOvercast.No wind100%30.27 "HgN/A
Weather by CustomWeather, © 2015

See weather overviewHow to use our weather pages